| time (UTC) | temp F | wind direction | speed MPH | gust MPH | rain 1hr in | rain 24hr in | rain mn in | humidity % | barometer mb |
| 20260906173528 | 70 | 45 | 3.0 | 3.0 | 0.00 | 0.00 | 0.00 | 63 | 1014.5 |
| 20260906173009 | 71 | 90 | 4.0 | 4.0 | 0.00 | 0.00 | 0.00 | 62 | 1014.5 |
| 20260906172453 | 71 | 68 | 3.0 | 3.0 | 0.00 | 0.00 | 0.00 | 63 | 1014.5 |
| 20260906171933 | 70 | 45 | 3.0 | 3.0 | 0.00 | 0.00 | 0.00 | 63 | 1014.5 |
| 20260906171413 | 69 | 90 | 4.0 | 4.0 | 0.00 | 0.00 | 0.00 | 63 | 1014.6 |
| 20260906170854 | 71 | 90 | 3.0 | 3.0 | 0.00 | 0.00 | 0.00 | 62 | 1014.6 |
| 20260906170339 | 71 | 135 | 2.0 | 2.0 | 0.00 | 0.00 | 0.00 | 63 | 1014.6 |
| 20260906165819 | 71 | 90 | 4.0 | 4.0 | 0.00 | 0.00 | 0.00 | 63 | 1014.6 |
| 20260906165259 | 71 | 68 | 3.0 | 3.0 | 0.00 | 0.00 | 0.00 | 63 | 1014.6 |
| 20260906164739 | 68 | 45 | 0.0 | 0.0 | 0.00 | 0.00 | 0.00 | 67 | 1014.6 |
| 20260906164223 | 68 | 23 | 2.0 | 2.0 | 0.00 | 0.00 | 0.00 | 66 | 1014.6 |
| 20260906163704 | 66 | 90 | 0.0 | 0.0 | 0.00 | 0.00 | 0.00 | 70 | 1014.6 |
| 20260906163143 | 65 | 113 | 0.0 | 0.0 | 0.00 | 0.00 | 0.00 | 71 | 1014.6 |
| 20260906162624 | 64 | 90 | 2.0 | 2.0 | 0.00 | 0.00 | 0.00 | 75 | 1014.7 |
| 20260906162109 | 62 | 45 | 0.0 | 0.0 | 0.00 | 0.00 | 0.00 | 78 | 1014.7 |
| 20260906161549 | 61 | 45 | 3.0 | 3.0 | 0.00 | 0.00 | 0.00 | 78 | 1014.6 |
| 20260906161029 | 61 | 113 | 3.0 | 3.0 | 0.00 | 0.00 | 0.00 | 80 | 1014.6 |
| 20260906155953 | 59 | 113 | 2.0 | 2.0 | 0.00 | 0.00 | 0.00 | 84 | 1014.6 |
| 20260906155434 | 59 | 90 | 1.0 | 1.0 | 0.00 | 0.00 | 0.00 | 86 | 1014.6 |
| 20260906154913 | 58 | 113 | 0.0 | 0.0 | 0.00 | 0.00 | 0.00 | 89 | 1014.5 |
| 20260906154354 | 58 | 113 | 1.0 | 1.0 | 0.00 | 0.00 | 0.00 | 92 | 1014.5 |
| 20260906153839 | 56 | 45 | 0.0 | 0.0 | 0.00 | 0.00 | 0.00 | 94 | 1014.6 |
| 20260906153318 | 55 | 90 | 0.0 | 0.0 | 0.00 | 0.00 | 0.00 | 94 | 1014.6 |
| 20260906152759 | 55 | 0 | 0.0 | 0.0 | 0.00 | 0.00 | 0.00 | 95 | 1014.5 |
| 20260906151204 | 56 | 90 | 0.0 | 0.0 | 0.00 | 0.00 | 0.00 | 97 | 1014.5 |
| 20260906150643 | 56 | 90 | 0.0 | 0.0 | 0.00 | 0.00 | 0.00 | 97 | 1014.5 |
| 20260906150124 | 55 | 90 | 0.0 | 0.0 | 0.00 | 0.00 | 0.00 | 96 | 1014.4 |
| 20260906144529 | 52 | 225 | 0.0 | 0.0 | 0.00 | 0.00 | 0.00 | 96 | 1014.3 |
| 20260906144009 | 51 | 248 | 0.0 | 0.0 | 0.00 | 0.00 | 0.00 | 96 | 1014.1 |
| 20260906143454 | 50 | 225 | 0.0 | 0.0 | 0.00 | 0.00 | 0.00 | 96 | 1014.1 |
| 20260906142934 | 50 | 248 | 0.0 | 0.0 | 0.00 | 0.00 | 0.00 | 96 | 1013.9 |
| 20260906142414 | 49 | 225 | 0.0 | 0.0 | 0.00 | 0.00 | 0.00 | 96 | 1013.9 |
| 20260906141854 | 48 | 248 | 0.0 | 0.0 | 0.00 | 0.00 | 0.00 | 96 | 1013.9 |
| 20260906141339 | 47 | 225 | 0.0 | 0.0 | 0.00 | 0.00 | 0.00 | 96 | 1013.9 |
| 20260906140819 | 47 | 225 | 0.0 | 0.0 | 0.00 | 0.00 | 0.00 | 96 | 1013.9 |
| 20260906140259 | 47 | 248 | 0.0 | 0.0 | 0.00 | 0.00 | 0.00 | 96 | 1013.9 |
| 20260906135739 | 47 | 225 | 0.0 | 0.0 | 0.00 | 0.00 | 0.00 | 96 | 1013.9 |
| 20260906135224 | 47 | 225 | 0.0 | 0.0 | 0.00 | 0.00 | 0.00 | 96 | 1013.8 |
| 20260906134704 | 46 | 225 | 0.0 | 0.0 | 0.00 | 0.00 | 0.00 | 96 | 1013.8 |
| 20260906133609 | 46 | 158 | 0.0 | 0.0 | 0.00 | 0.00 | 0.00 | 96 | 1013.6 |
| 20260906131509 | 47 | 225 | 0.0 | 0.0 | 0.00 | 0.00 | 0.00 | 96 | 1013.4 |
| 20260906130954 | 47 | 248 | 0.0 | 0.0 | 0.00 | 0.00 | 0.00 | 96 | 1013.4 |
| 20260906130434 | 47 | 248 | 0.0 | 0.0 | 0.00 | 0.00 | 0.00 | 96 | 1013.3 |
| 20260906125914 | 47 | 248 | 0.0 | 0.0 | 0.00 | 0.00 | 0.00 | 96 | 1013.3 |
| 20260906125354 | 47 | 225 | 0.0 | 0.0 | 0.00 | 0.00 | 0.00 | 96 | 1013.3 |
| 20260906124839 | 47 | 248 | 0.0 | 0.0 | 0.00 | 0.00 | 0.00 | 96 | 1013.3 |
| 20260906124319 | 47 | 225 | 0.0 | 0.0 | 0.00 | 0.00 | 0.00 | 96 | 1013.3 |
| 20260906123759 | 47 | 248 | 0.0 | 0.0 | 0.00 | 0.00 | 0.00 | 96 | 1013.3 |
| 20260906123239 | 47 | 248 | 0.0 | 0.0 | 0.00 | 0.00 | 0.00 | 96 | 1013.3 |
| 20260906122724 | 47 | 248 | 0.0 | 0.0 | 0.00 | 0.00 | 0.00 | 96 | 1013.3 |
| 20260906122204 | 47 | 225 | 0.0 | 0.0 | 0.00 | 0.00 | 0.00 | 96 | 1013.3 |
| 20260906121644 | 47 | 203 | 0.0 | 0.0 | 0.00 | 0.00 | 0.00 | 96 | 1013.3 |
| 20260906121124 | 47 | 225 | 0.0 | 0.0 | 0.00 | 0.00 | 0.00 | 96 | 1013.3 |
| 20260906120609 | 48 | 225 | 0.0 | 0.0 | 0.00 | 0.00 | 0.00 | 96 | 1013.3 |
| 20260906120049 | 48 | 225 | 0.0 | 0.0 | 0.00 | 0.00 | 0.00 | 96 | 1013.3 |
| 20260906115529 | 48 | 248 | 0.0 | 0.0 | 0.00 | 0.00 | 0.00 | 96 | 1013.3 |
| 20260906115009 | 48 | 248 | 0.0 | 0.0 | 0.00 | 0.00 | 0.00 | 96 | 1013.3 |
| 20260906114509 | 48 | 225 | 0.0 | 0.0 | 0.00 | 0.00 | 0.00 | 96 | 1013.3 |
| 20260906113949 | 48 | 248 | 0.0 | 0.0 | 0.00 | 0.00 | 0.00 | 96 | 1013.1 |
| 20260906113434 | 48 | 248 | 0.0 | 0.0 | 0.00 | 0.00 | 0.00 | 96 | 1013.1 |
| 20260906112914 | 48 | 248 | 0.0 | 0.0 | 0.00 | 0.00 | 0.00 | 96 | 1013.3 |
| 20260906112354 | 48 | 248 | 0.0 | 0.0 | 0.00 | 0.00 | 0.00 | 95 | 1013.3 |
| 20260906111834 | 48 | 225 | 0.0 | 0.0 | 0.00 | 0.00 | 0.00 | 95 | 1013.3 |
| 20260906111319 | 48 | 248 | 0.0 | 0.0 | 0.00 | 0.00 | 0.00 | 95 | 1013.1 |
| 20260906110239 | 48 | 270 | 0.0 | 0.0 | 0.00 | 0.00 | 0.00 | 95 | 1013.3 |
| 20260906105719 | 48 | 248 | 0.0 | 0.0 | 0.00 | 0.00 | 0.00 | 95 | 1013.3 |
| 20260906104644 | 48 | 225 | 0.0 | 0.0 | 0.00 | 0.00 | 0.00 | 95 | 1013.1 |
| 20260906104124 | 48 | 248 | 0.0 | 0.0 | 0.00 | 0.00 | 0.00 | 95 | 1013.1 |
| 20260906103104 | 47 | 225 | 0.0 | 0.0 | 0.00 | 0.00 | 0.00 | 94 | 1013.1 |
| 20260906102549 | 47 | 248 | 0.0 | 0.0 | 0.00 | 0.00 | 0.00 | 94 | 1013.1 |
| 20260906102029 | 48 | 293 | 0.0 | 0.0 | 0.00 | 0.00 | 0.00 | 94 | 1013.1 |
| 20260906101009 | 48 | 225 | 0.0 | 0.0 | 0.00 | 0.00 | 0.00 | 94 | 1013.1 |
| 20260906100449 | 48 | 225 | 0.0 | 0.0 | 0.00 | 0.00 | 0.00 | 94 | 1013.1 |
| 20260906095414 | 48 | 225 | 0.0 | 0.0 | 0.00 | 0.00 | 0.00 | 94 | 1013.1 |
| 20260906094854 | 48 | 248 | 0.0 | 0.0 | 0.00 | 0.00 | 0.00 | 94 | 1013.1 |
| 20260906094334 | 48 | 225 | 0.0 | 0.0 | 0.00 | 0.00 | 0.00 | 94 | 1013.1 |
| 20260906093819 | 49 | 248 | 0.0 | 0.0 | 0.00 | 0.00 | 0.00 | 94 | 1013.3 |
| 20260906093259 | 49 | 225 | 0.0 | 0.0 | 0.00 | 0.00 | 0.00 | 94 | 1013.3 |
| 20260906092219 | 49 | 225 | 0.0 | 0.0 | 0.00 | 0.00 | 0.00 | 94 | 1013.4 |
| 20260906091704 | 49 | 248 | 0.0 | 0.0 | 0.00 | 0.00 | 0.00 | 94 | 1013.3 |
| 20260906091144 | 49 | 225 | 0.0 | 0.0 | 0.00 | 0.00 | 0.00 | 94 | 1013.3 |
| 20260906090104 | 49 | 248 | 2.0 | 2.0 | 0.00 | 0.00 | 0.00 | 94 | 1013.4 |
| 20260906085549 | 49 | 248 | 0.0 | 0.0 | 0.00 | 0.00 | 0.00 | 94 | 1013.4 |
| 20260906085029 | 49 | 248 | 0.0 | 0.0 | 0.00 | 0.00 | 0.00 | 94 | 1013.3 |
| 20260906084509 | 50 | 225 | 0.0 | 0.0 | 0.00 | 0.00 | 0.00 | 94 | 1013.3 |
| 20260906083949 | 50 | 248 | 0.0 | 0.0 | 0.00 | 0.00 | 0.00 | 94 | 1013.3 |
| 20260906083434 | 50 | 248 | 0.0 | 0.0 | 0.00 | 0.00 | 0.00 | 94 | 1013.3 |
| 20260906082914 | 50 | 248 | 0.0 | 0.0 | 0.00 | 0.00 | 0.00 | 94 | 1013.4 |
| 20260906082354 | 50 | 248 | 0.0 | 0.0 | 0.00 | 0.00 | 0.00 | 94 | 1013.4 |
| 20260906081834 | 50 | 248 | 0.0 | 0.0 | 0.00 | 0.00 | 0.00 | 93 | 1013.4 |
| 20260906080759 | 50 | 248 | 0.0 | 0.0 | 0.00 | 0.00 | 0.00 | 93 | 1013.4 |
| 20260906080219 | 50 | 225 | 0.0 | 0.0 | 0.00 | 0.00 | 0.00 | 93 | 1013.4 |
| 20260906075704 | 50 | 248 | 0.0 | 0.0 | 0.00 | 0.00 | 0.00 | 93 | 1013.4 |
| 20260906075144 | 50 | 248 | 0.0 | 0.0 | 0.00 | 0.00 | 0.00 | 93 | 1013.5 |
| 20260906074624 | 50 | 248 | 0.0 | 0.0 | 0.00 | 0.00 | 0.00 | 93 | 1013.5 |
| 20260906074104 | 50 | 248 | 0.0 | 0.0 | 0.00 | 0.00 | 0.00 | 93 | 1013.5 |
| 20260906073549 | 50 | 248 | 0.0 | 0.0 | 0.00 | 0.00 | 0.00 | 92 | 1013.5 |
| 20260906073029 | 50 | 225 | 0.0 | 0.0 | 0.00 | 0.00 | 0.00 | 91 | 1013.5 |
| 20260906072509 | 50 | 225 | 0.0 | 0.0 | 0.00 | 0.00 | 0.00 | 91 | 1013.4 |
| 20260906071949 | 50 | 248 | 0.0 | 0.0 | 0.00 | 0.00 | 0.00 | 91 | 1013.4 |
| 20260906071449 | 50 | 248 | 0.0 | 0.0 | 0.00 | 0.00 | 0.00 | 91 | 1013.4 |
| 20260906070934 | 50 | 225 | 0.0 | 0.0 | 0.00 | 0.00 | 0.00 | 91 | 1013.4 |
| 20260906070414 | 50 | 225 | 0.0 | 0.0 | 0.00 | 0.00 | 0.00 | 91 | 1013.5 |
| 20260906065914 | 50 | 248 | 0.0 | 0.0 | 0.00 | 0.00 | 0.02 | 91 | 1013.5 |
| 20260906065355 | 51 | 180 | 0.0 | 0.0 | 0.00 | 0.00 | 0.02 | 91 | 1013.5 |
| 20260906064855 | 51 | 225 | 0.0 | 0.0 | 0.00 | 0.00 | 0.02 | 92 | 1013.5 |
| 20260906064334 | 51 | 225 | 0.0 | 0.0 | 0.00 | 0.00 | 0.02 | 92 | 1013.5 |
| 20260906063819 | 51 | 225 | 0.0 | 0.0 | 0.00 | 0.00 | 0.02 | 92 | 1013.5 |
| 20260906063259 | 51 | 248 | 0.0 | 0.0 | 0.00 | 0.00 | 0.02 | 92 | 1013.5 |
| 20260906062219 | 51 | 225 | 0.0 | 0.0 | 0.00 | 0.00 | 0.02 | 92 | 1013.5 |
| 20260906061704 | 51 | 225 | 0.0 | 0.0 | 0.00 | 0.00 | 0.02 | 92 | 1013.4 |
| 20260906061144 | 51 | 248 | 0.0 | 0.0 | 0.00 | 0.00 | 0.02 | 92 | 1013.4 |
| 20260906060105 | 51 | 248 | 0.0 | 0.0 | 0.00 | 0.00 | 0.02 | 91 | 1013.4 |
| 20260906055605 | 52 | 248 | 0.0 | 0.0 | 0.00 | 0.00 | 0.02 | 91 | 1013.4 |
| 20260906054530 | 52 | 248 | 3.0 | 3.0 | 0.00 | 0.00 | 0.02 | 90 | 1013.5 |
| 20260906054010 | 52 | 225 | 3.0 | 3.0 | 0.00 | 0.00 | 0.02 | 89 | 1013.5 |
| 20260906053449 | 52 | 248 | 2.0 | 2.0 | 0.00 | 0.00 | 0.02 | 89 | 1013.5 |
| 20260906052934 | 52 | 225 | 3.0 | 3.0 | 0.00 | 0.00 | 0.02 | 89 | 1013.5 |
| 20260906052414 | 53 | 248 | 3.0 | 3.0 | 0.00 | 0.00 | 0.02 | 89 | 1013.5 |
| 20260906051854 | 53 | 225 | 3.0 | 3.0 | 0.00 | 0.00 | 0.02 | 89 | 1013.5 |
| 20260906051334 | 53 | 248 | 4.0 | 4.0 | 0.00 | 0.00 | 0.02 | 89 | 1013.6 |
| 20260906050820 | 53 | 225 | 3.0 | 3.0 | 0.00 | 0.00 | 0.02 | 88 | 1013.6 |
| 20260906050259 | 53 | 225 | 3.0 | 3.0 | 0.00 | 0.00 | 0.02 | 88 | 1013.6 |
| 20260906045739 | 53 | 248 | 0.0 | 0.0 | 0.00 | 0.00 | 0.02 | 87 | 1013.6 |
| 20260906044719 | 53 | 248 | 0.0 | 0.0 | 0.00 | 0.00 | 0.02 | 86 | 1013.6 |
| 20260906044144 | 53 | 248 | 0.0 | 0.0 | 0.00 | 0.00 | 0.02 | 85 | 1013.5 |
| 20260906043104 | 54 | 270 | 0.0 | 0.0 | 0.00 | 0.00 | 0.02 | 84 | 1013.5 |
| 20260906042029 | 55 | 180 | 0.0 | 0.0 | 0.00 | 0.00 | 0.02 | 80 | 1013.5 |
| 20260906041509 | 55 | 180 | 0.0 | 0.0 | 0.00 | 0.00 | 0.02 | 81 | 1013.3 |
| 20260906040950 | 55 | 225 | 0.0 | 0.0 | 0.00 | 0.00 | 0.02 | 80 | 1013.3 |
| 20260906040429 | 55 | 225 | 2.0 | 2.0 | 0.00 | 0.00 | 0.02 | 80 | 1013.1 |
| 20260906035915 | 56 | 248 | 3.0 | 3.0 | 0.00 | 0.00 | 0.02 | 79 | 1013.1 |
| 20260906034315 | 57 | 203 | 2.0 | 2.0 | 0.00 | 0.00 | 0.02 | 77 | 1013.1 |
| 20260906033800 | 57 | 203 | 3.0 | 3.0 | 0.00 | 0.00 | 0.02 | 75 | 1013.1 |
| 20260906033240 | 57 | 248 | 3.0 | 3.0 | 0.00 | 0.00 | 0.02 | 74 | 1013.1 |
| 20260906032719 | 58 | 225 | 3.0 | 3.0 | 0.00 | 0.00 | 0.02 | 74 | 1013.1 |
| 20260906032159 | 58 | 225 | 3.0 | 3.0 | 0.00 | 0.00 | 0.02 | 73 | 1013.1 |
| 20260906031644 | 59 | 248 | 4.0 | 4.0 | 0.00 | 0.00 | 0.02 | 72 | 1013.1 |
| 20260906031124 | 59 | 225 | 4.0 | 4.0 | 0.00 | 0.00 | 0.02 | 71 | 1013.1 |
| 20260906030604 | 59 | 248 | 3.0 | 3.0 | 0.00 | 0.00 | 0.02 | 70 | 1013.1 |
| 20260906030044 | 59 | 293 | 2.0 | 2.0 | 0.00 | 0.00 | 0.02 | 69 | 1013.1 |
| 20260906025530 | 59 | 248 | 2.0 | 2.0 | 0.00 | 0.00 | 0.02 | 69 | 1013.1 |
| 20260906025010 | 60 | 248 | 3.0 | 3.0 | 0.00 | 0.00 | 0.02 | 68 | 1013.1 |
| 20260906024510 | 60 | 248 | 3.0 | 3.0 | 0.00 | 0.00 | 0.02 | 67 | 1013.1 |
| 20260906023950 | 61 | 270 | 2.0 | 2.0 | 0.00 | 0.00 | 0.02 | 65 | 1013.1 |
| 20260906023430 | 61 | 248 | 3.0 | 3.0 | 0.00 | 0.00 | 0.02 | 64 | 1013.1 |
| 20260906022915 | 61 | 248 | 4.0 | 4.0 | 0.00 | 0.00 | 0.02 | 62 | 1013.3 |
| 20260906022355 | 62 | 248 | 3.0 | 3.0 | 0.00 | 0.00 | 0.02 | 61 | 1013.3 |
| 20260906021835 | 62 | 225 | 2.0 | 2.0 | 0.00 | 0.00 | 0.02 | 60 | 1013.3 |
| 20260906021315 | 63 | 225 | 1.0 | 1.0 | 0.00 | 0.00 | 0.02 | 59 | 1013.3 |
| 20260906020800 | 63 | 203 | 3.0 | 3.0 | 0.00 | 0.00 | 0.02 | 58 | 1013.3 |
| 20260906020240 | 64 | 293 | 4.0 | 4.0 | 0.00 | 0.00 | 0.02 | 57 | 1013.3 |
| 20260906015720 | 64 | 338 | 3.0 | 3.0 | 0.00 | 0.00 | 0.02 | 57 | 1013.3 |
| 20260906015159 | 64 | 248 | 5.0 | 5.0 | 0.00 | 0.00 | 0.02 | 56 | 1013.3 |
| 20260906014645 | 64 | 225 | 4.0 | 4.0 | 0.00 | 0.00 | 0.02 | 56 | 1013.3 |
| 20260906014124 | 65 | 225 | 3.0 | 3.0 | 0.00 | 0.00 | 0.02 | 56 | 1013.3 |
| 20260906013605 | 65 | 248 | 4.0 | 4.0 | 0.00 | 0.00 | 0.02 | 56 | 1013.3 |
| 20260906013045 | 66 | 203 | 3.0 | 3.0 | 0.00 | 0.00 | 0.02 | 56 | 1013.3 |
| 20260906012530 | 66 | 225 | 5.0 | 5.0 | 0.00 | 0.00 | 0.02 | 55 | 1013.3 |
| 20260906012010 | 66 | 270 | 5.0 | 5.0 | 0.00 | 0.00 | 0.02 | 55 | 1013.3 |
| 20260906011510 | 67 | 293 | 3.0 | 3.0 | 0.00 | 0.00 | 0.02 | 55 | 1013.4 |
| 20260906010430 | 68 | 225 | 5.0 | 5.0 | 0.00 | 0.00 | 0.02 | 54 | 1013.3 |
| 20260906005910 | 69 | 338 | 5.0 | 5.0 | 0.00 | 0.00 | 0.02 | 54 | 1013.3 |
| 20260906005355 | 71 | 315 | 6.0 | 6.0 | 0.00 | 0.00 | 0.02 | 53 | 1013.4 |
| 20260906004315 | 74 | 293 | 4.0 | 4.0 | 0.00 | 0.00 | 0.02 | 51 | 1013.4 |
| 20260906003755 | 74 | 248 | 4.0 | 4.0 | 0.00 | 0.00 | 0.02 | 51 | 1013.4 |
| 20260906003220 | 75 | 248 | 4.0 | 4.0 | 0.00 | 0.00 | 0.02 | 50 | 1013.4 |
| 20260906002700 | 75 | 180 | 3.0 | 3.0 | 0.00 | 0.00 | 0.02 | 50 | 1013.5 |
| 20260906002140 | 75 | 225 | 4.0 | 4.0 | 0.00 | 0.00 | 0.02 | 50 | 1013.5 |
| 20260906001625 | 75 | 248 | 5.0 | 5.0 | 0.00 | 0.00 | 0.02 | 51 | 1013.5 |
| 20260906001105 | 76 | 248 | 6.0 | 6.0 | 0.00 | 0.00 | 0.02 | 50 | 1013.5 |
| 20260906000545 | 76 | 225 | 5.0 | 5.0 | 0.00 | 0.00 | 0.02 | 49 | 1013.5 |
| 20260906000025 | 77 | 248 | 5.0 | 5.0 | 0.00 | 0.00 | 0.02 | 48 | 1013.5 |
| 20260905235505 | 77 | 270 | 4.0 | 4.0 | 0.00 | 0.00 | 0.02 | 48 | 1013.5 |
| 20260905234430 | 77 | 270 | 5.0 | 5.0 | 0.00 | 0.00 | 0.02 | 47 | 1013.5 |
| 20260905233910 | 77 | 248 | 6.0 | 6.0 | 0.00 | 0.00 | 0.02 | 48 | 1013.4 |
| 20260905232835 | 76 | 293 | 5.0 | 5.0 | 0.00 | 0.00 | 0.02 | 50 | 1013.5 |
| 20260905232315 | 77 | 225 | 6.0 | 6.0 | 0.00 | 0.00 | 0.02 | 49 | 1013.5 |
| 20260905231755 | 75 | 293 | 7.0 | 7.0 | 0.00 | 0.00 | 0.02 | 50 | 1013.8 |
| 20260905231235 | 77 | 248 | 5.0 | 5.0 | 0.00 | 0.00 | 0.02 | 49 | 1013.8 |
| 20260905230720 | 78 | 225 | 7.0 | 7.0 | 0.00 | 0.00 | 0.02 | 48 | 1013.8 |
| 20260905230200 | 77 | 203 | 6.0 | 6.0 | 0.00 | 0.00 | 0.02 | 49 | 1013.9 |
| 20260905225640 | 78 | 225 | 6.0 | 6.0 | 0.00 | 0.00 | 0.02 | 49 | 1013.9 |
| 20260905225120 | 78 | 248 | 5.0 | 5.0 | 0.00 | 0.00 | 0.02 | 49 | 1014.0 |
| 20260905224605 | 77 | 270 | 6.0 | 6.0 | 0.00 | 0.00 | 0.02 | 49 | 1014.0 |
| 20260905224045 | 77 | 248 | 5.0 | 5.0 | 0.00 | 0.00 | 0.02 | 50 | 1014.1 |
| 20260905223525 | 77 | 248 | 5.0 | 5.0 | 0.00 | 0.00 | 0.02 | 49 | 1014.1 |
| 20260905223005 | 77 | 293 | 5.0 | 5.0 | 0.00 | 0.00 | 0.02 | 50 | 1014.1 |
| 20260905222450 | 77 | 270 | 7.0 | 7.0 | 0.00 | 0.00 | 0.02 | 50 | 1014.1 |
| 20260905221931 | 78 | 270 | 6.0 | 6.0 | 0.00 | 0.00 | 0.02 | 50 | 1014.1 |
| 20260905221410 | 78 | 270 | 6.0 | 6.0 | 0.00 | 0.00 | 0.02 | 49 | 1014.1 |
| 20260905220850 | 80 | 225 | 6.0 | 6.0 | 0.00 | 0.00 | 0.02 | 46 | 1014.1 |
| 20260905220200 | 81 | 248 | 5.0 | 5.0 | 0.00 | 0.00 | 0.02 | 46 | 1014.1 |
| 20260905215640 | 80 | 158 | 5.0 | 5.0 | 0.00 | 0.00 | 0.02 | 47 | 1014.1 |
| 20260905215120 | 80 | 270 | 6.0 | 6.0 | 0.00 | 0.00 | 0.02 | 45 | 1014.0 |
| 20260905214600 | 82 | 225 | 5.0 | 5.0 | 0.00 | 0.00 | 0.02 | 42 | 1014.0 |
| 20260905214045 | 81 | 203 | 5.0 | 5.0 | 0.00 | 0.00 | 0.02 | 41 | 1014.0 |
| 20260905213525 | 82 | 248 | 5.0 | 5.0 | 0.00 | 0.00 | 0.02 | 42 | 1014.0 |
| 20260905212755 | 82 | 270 | 4.0 | 4.0 | 0.00 | 0.00 | 0.02 | 42 | 1013.9 |
| 20260905211715 | 80 | 248 | 6.0 | 6.0 | 0.00 | 0.00 | 0.02 | 40 | 1014.0 |
| 20260905211200 | 82 | 270 | 5.0 | 5.0 | 0.00 | 0.00 | 0.02 | 40 | 1014.0 |
| 20260905210640 | 82 | 225 | 5.0 | 5.0 | 0.00 | 0.00 | 0.02 | 40 | 1014.0 |
| 20260905210140 | 80 | 180 | 4.0 | 4.0 | 0.00 | 0.00 | 0.02 | 41 | 1014.1 |
| 20260905205620 | 81 | 248 | 5.0 | 5.0 | 0.00 | 0.00 | 0.02 | 40 | 1014.1 |
| 20260905205100 | 81 | 158 | 5.0 | 5.0 | 0.00 | 0.00 | 0.02 | 42 | 1014.1 |
| 20260905203505 | 80 | 225 | 5.0 | 5.0 | 0.00 | 0.00 | 0.02 | 44 | 1014.0 |
| 20260905202945 | 79 | 203 | 6.0 | 6.0 | 0.00 | 0.00 | 0.02 | 46 | 1014.0 |
| 20260905202410 | 80 | 248 | 6.0 | 6.0 | 0.00 | 0.00 | 0.02 | 46 | 1014.0 |
| 20260905201850 | 81 | 180 | 0.0 | 0.0 | 0.00 | 0.00 | 0.02 | 45 | 1014.0 |
| 20260905201330 | 82 | 68 | 0.0 | 0.0 | 0.01 | 0.00 | 0.02 | 47 | 1013.9 |
| 20260905200810 | 80 | 180 | 0.0 | 0.0 | 0.01 | 0.00 | 0.02 | 49 | 1013.9 |
| 20260905200255 | 82 | 135 | 0.0 | 0.0 | 0.01 | 0.00 | 0.02 | 48 | 1014.0 |
| 20260905195735 | 82 | 113 | 0.0 | 0.0 | 0.01 | 0.00 | 0.02 | 47 | 1014.0 |
| 20260905195215 | 82 | 158 | 0.0 | 0.0 | 0.01 | 0.00 | 0.02 | 48 | 1014.0 |
| 20260905194655 | 83 | 315 | 0.0 | 0.0 | 0.01 | 0.00 | 0.02 | 47 | 1014.0 |
| 20260905194140 | 84 | 225 | 0.0 | 0.0 | 0.01 | 0.00 | 0.02 | 47 | 1014.0 |
| 20260905193620 | 82 | 293 | 0.0 | 0.0 | 0.01 | 0.00 | 0.02 | 48 | 1014.0 |
| 20260905192025 | 81 | 135 | 0.0 | 0.0 | 0.01 | 0.00 | 0.02 | 48 | 1014.1 |
| 20260905191526 | 81 | 23 | 0.0 | 0.0 | 0.00 | 0.00 | 0.01 | 48 | 1014.2 |
| 20260905190445 | 83 | 113 | 0.0 | 0.0 | 0.00 | 0.00 | 0.01 | 45 | 1014.3 |
| 20260905185925 | 81 | 90 | 0.0 | 0.0 | 0.00 | 0.00 | 0.01 | 47 | 1014.3 |
| 20260905185410 | 80 | 248 | 0.0 | 0.0 | 0.00 | 0.00 | 0.01 | 49 | 1014.3 |
| 20260905184850 | 80 | 135 | 0.0 | 0.0 | 0.00 | 0.00 | 0.01 | 50 | 1014.3 |
| 20260905184330 | 80 | 0 | 0.0 | 0.0 | 0.00 | 0.00 | 0.01 | 49 | 1014.3 |
| 20260905183255 | 80 | 90 | 0.0 | 0.0 | 0.00 | 0.00 | 0.01 | 50 | 1014.4 |
| 20260905182735 | 79 | 180 | 0.0 | 0.0 | 0.00 | 0.00 | 0.01 | 52 | 1014.3 |
| 20260905182215 | 79 | 203 | 0.0 | 0.0 | 0.00 | 0.00 | 0.01 | 52 | 1014.3 |
| 20260905181655 | 78 | 270 | 0.0 | 0.0 | 0.00 | 0.00 | 0.01 | 52 | 1014.4 |
| 20260905181120 | 78 | 68 | 0.0 | 0.0 | 0.00 | 0.00 | 0.01 | 54 | 1014.4 |
| 20260905180540 | 76 | 270 | 0.0 | 0.0 | 0.00 | 0.00 | 0.01 | 54 | 1014.4 |
| 20260905180026 | 77 | 248 | 0.0 | 0.0 | 0.00 | 0.00 | 0.01 | 54 | 1014.4 |
| 20260905175505 | 75 | 225 | 0.0 | 0.0 | 0.00 | 0.00 | 0.01 | 55 | 1014.4 |
| 20260905174945 | 77 | 180 | 0.0 | 0.0 | 0.00 | 0.00 | 0.01 | 54 | 1014.5 |